Location: Hac?musa Deresi
(39.1694°N, 32.2508°E)
Time: 08:52:00
(UTC+00:00)

Spot 2 Rocket - Pass Details

Date: 22 April 2026
Orbit: 751 x 766 km, 98.3° (Epoch: 12 May)

Event Time Altitude Azimuth Distance (km) Brightness Sun altitude
Exits shadow 19:23:17 38° 241° (WSW) 1,135 4.4 -28.2°
Maximum altitude 19:23:58 40° 262° (W) 1,097 4.4 -28.3°
Drops below altitude 10° 19:28:42 10° 332° (NNW) 2,281 6.9 -28.9°
Sets 19:31:08 0° 339° (NNW) 3,209 7.8 -29.2°
